Regional Weather Roundup
Issued by NWS Newport/Morehead, NC

Current Version | Previous Version | Text Only | Print | Product List | Glossary On
Versions: 1 2 3 4 5 6 7 8 9 10 11 12 13 14 15 16 17 18 19 20 21 22 23 24 25 26 27 28 29 30 31 32 33 34 35 36 37 38 39 40 41 42 43 44 45 46 47 48 49 50
000
ASUS42 KMHX 030324
RWRMHX
WEATHER ROUNDUP FOR EASTERN NORTH CAROLINA
NATIONAL WEATHER SERVICE NEWPORT/MOREHEAD CITY NC
1100 PM EDT SAT MAY 02 2015

NOTE: "FAIR" INDICATES FEW OR NO CLOUDS BELOW 12,000 FEET
WITH NO SIGNIFICANT WEATHER AND/OR OBSTRUCTIONS TO VISIBILITY

NCZ015>017-031-032-045>047-102-103-030400-
NORTH COAST

CITY           SKY/WX    TMP DP  RH WIND       PRES   REMARKS
EDENTON        CLEAR     52  49  91 CALM      30.10R
ELIZABETH CITY CLEAR     52  47  83 CALM      30.09R
KITTY HAWK     CLEAR     48  46  90 SW5       30.08R FOG
MANTEO         CLEAR     47  45  94 CALM      30.09S

$$

NCZ045>047-081-094-103-104-030400-
CENTRAL COAST

CITY           SKY/WX    TMP DP  RH WIND       PRES   REMARKS
FRISCO         CLEAR     44  42  93 CALM      30.09R
SWANQUARTER      N/A     54 N/A N/A SE2       30.06S

$$

NCZ095-097-098-100-101-030400-
SOUTHERN COAST

CITY           SKY/WX    TMP DP  RH WIND       PRES   REMARKS
BEAUFORT       PTCLDY    54  50  86 CALM      30.11R
CEDAR ISLAND     N/A     59 N/A N/A E7        30.15R
JACKSONVILLE   CLEAR     60  55  83 S6        30.11R
PINEY ISLAND   CLEAR    N/A N/A N/A E3        30.10R
WILMINGTON     CLEAR     57  55  93 CALM      30.11R


$$

NCZ011>013-027>030-043-044-078>080-089-090>093-098-030400-
COASTAL PLAIN

CITY           SKY/WX    TMP DP  RH WIND       PRES   REMARKS
AHOSKIE        CLEAR     52  50  94 CALM      30.09S
CLINTON        CLEAR     55  55  99 CALM      30.11R
ELIZABETHTOWN  CLEAR     56  52  86 CALM      30.11R
GOLDSBORO      CLEAR     55  53  93 CALM      30.08R
GREENVILLE     CLEAR     54  54 100 CALM      30.11S
HAVELOCK       PTCLDY    55  49  80 CALM      30.12R
KENANSVILLE    CLEAR     51  50  95 CALM      30.11S
KINSTON        CLEAR     52  51  97 CALM      30.11R
NEW BERN       PTCLDY    57  51  80 S3        30.12R
RICHLANDS      CLEAR     54  46  76 CALM      30.12R
ROCKY MOUNT    CLEAR     53  52  96 CALM      30.10R
WASHINGTON     CLEAR     56  52  86 S6        30.11S
WHITEVILLE     FAIR      56  53  88 CALM      30.10R

$$

AMZ130-135-150-152-154-156-158-170-250-252-270-ANZ085-086-088-633-658-670-030400-
MARINE OBSERVATIONS

STATION/POSITION TIME  TEMP    WIND        PRES    WAVE   SWELL
                       AIR SEA DIR/SP/G            HT/PER HT/PER
                 (UTC) (F)     (DEG/KT/KT) (MB)    (FT/S) (FT/S)
CHESAPEAKE LIGHT 0300   51     170/ 10/ 10 1018.9
64 E VA BEACH    0250   57 63  330/  6/  8 1017.7    9/11   8/11
DUCK             0300          140/  5/  5   N/A
2 E DUCK         0211      54                N/A     6/12   3/12
OREGON INLET     0300   52 57   CALM  /  1 1018.6
13E OREGON INLT  0300      50                N/A     8/11   5/11
HATTERAS CG      0200   56 62  100/  1/  2 1018.3
DIAMOND BUOY     0250   58 73   30/ 12/ 14 1018.6    7/11   7/11
CAPE LOOKOUT     0300   61      50/  4/  5 1019.4
BEAUFORT LAB     0200   59 62  100/  2/  3 1018.3
27 SE WRIGHTSVLE 0300   65 71   20/  4/  6   N/A
5 SE WRIGHTSVLE  0208   66 66  270/  8/ 12 1018.9
225 S CAPE HAT   0250   65 69  350/ 19/ 27 1018.3   12/11   8/11
41 SE CHARLESTON 0250   70 72  210/  8/ 10 1019.1    3/10   3/10

$$



USA.gov is the U.S. government's official web portal to all federal, state and local government web resources and services.